Location: Napa Soda Springs
(38.3907°N, 122.2794°W)
Time: 21:16:45
(UTC+00:00)

Cosmos 1400 Rocket - Pass Details

Date: 29 October 2020
Orbit: 521 x 568 km, 81.2° (Epoch: 24 November)

Event Time Altitude Azimuth Distance (km) Brightness Sun altitude
Rises 12:44:09 0° 355° (N) 2,689 6.3 -21.8°
Reaches altitude 10° 12:46:22 10° 360° (N) 1,786 5.4 -21.4°
Maximum altitude 12:50:13 57° 79° (E) 625 3.3 -20.6°
Drops below altitude 10° 12:54:01 10° 159° (SSE) 1,754 5.7 -19.9°
Sets 12:56:10 0° 163° (SSE) 2,635 6.5 -19.5°
